DW2871 Weather Reports


Display with metric or nautical units.
time (UTC)temp
F
wind
direction
speed
MPH
gust
MPH
rain 1hr
in
rain 24hr
in
rain mn
in
humidity
%
barometer
mb
20260509223020 -90 187 0.0 0.0 0.00 0.00 0.00 1039.0
20260509221511 -90 188 0.0 0.0 0.00 0.00 0.00 1038.9
20260509220008 -90 188 0.0 0.0 0.00 0.00 0.00 1038.7
20260509214501 -90 187 0.0 0.0 0.00 0.00 0.00 1038.6
20260509213059 -90 188 0.0 0.0 0.00 0.00 0.00 1038.3
20260509211557 -90 187 0.0 0.0 0.00 0.00 0.00 1038.1
20260509210054 -90 188 0.0 0.0 0.00 0.00 0.00 1038.0
20260509204542 -90 187 0.0 0.0 0.00 0.00 0.00 1037.9
20260509203038 -90 187 0.0 0.0 0.00 0.00 0.00 1037.8
20260509201505 0 188 0.0 0.0 0.00 0.00 0.00 1037.7
20260509200059 0 187 0.0 0.0 0.00 0.00 0.00 1037.6
20260509194527 0 187 0.0 0.0 0.00 0.00 0.00 1037.5
20260509193021 0 187 0.0 0.0 0.00 0.00 0.00 1037.4
20260509191549 -90 187 0.0 0.0 0.00 0.00 0.00 1037.1
20260509190048 -90 188 0.0 0.0 0.00 0.00 0.00 1037.0
20260509184537 0 188 0.0 0.0 0.00 0.00 0.00 1036.9
20260509183030 0 188 0.0 0.0 0.00 0.00 0.00 1036.8
20260509181527 0 187 0.0 0.0 0.00 0.00 0.00 1036.7
20260509180024 0 187 0.0 0.0 0.00 0.00 0.00 1036.6
20260509174514 0 188 0.0 0.0 0.00 0.00 0.00 1036.5
20260509173032 -90 188 0.0 0.0 0.00 0.00 0.00 1036.4
20260509171516 -90 187 0.0 0.0 0.00 0.00 0.00 1036.5
20260509170001 -90 188 0.0 0.0 0.00 0.00 0.00 1036.7
20260509164559 -90 188 0.0 0.0 0.00 0.00 0.00 1036.7
20260509163051 0 188 0.0 0.0 0.00 0.00 0.00 1036.6
20260509161544 -90 188 0.0 0.0 0.00 0.00 0.00 1036.8
20260509160045 -90 188 0.0 0.0 0.00 0.00 0.00 1036.9
20260509154506 0 187 0.0 0.0 0.00 0.00 0.00 1036.9
20260509153003 0 188 0.0 0.0 0.00 0.00 0.00 1036.9
20260509151526 0 188 0.0 0.0 0.00 0.00 0.00 1036.9
20260509150023 0 188 0.0 0.0 0.00 0.00 0.00 1036.9
20260509144515 0 188 0.0 0.0 0.00 0.00 0.00 1036.9
20260509143013 0 188 0.0 0.0 0.00 0.00 0.00 1036.9
20260509141507 -90 185 0.0 0.0 0.00 0.00 0.00 1036.9
20260509140003 -90 185 0.0 0.0 0.00 0.00 0.00 1036.9
20260509134559 -90 185 0.0 0.0 0.00 0.00 0.00 1036.9
20260509133051 -90 186 0.0 0.0 0.00 0.00 0.00 1036.9
20260509131558 -90 185 0.0 0.0 0.00 0.00 0.00 1036.9
20260509130105 -90 186 0.0 0.0 0.00 0.00 0.00 1036.9
20260509124541 -90 185 0.0 0.0 0.00 0.00 0.00 1036.9
20260509123051 -90 183 0.0 0.0 0.00 0.00 0.00 1037.0
20260509121525 -90 184 0.0 0.0 0.00 0.00 0.00 1037.0
20260509120028 -90 184 0.0 0.0 0.00 0.00 0.00 1036.8
20260509114519 -90 183 0.0 0.0 0.00 0.00 0.00 1036.9
20260509113010 -90 183 0.0 0.0 0.00 0.00 0.00 1036.8
20260509111505 -90 184 0.0 0.0 0.00 0.00 0.00 1036.6
20260509110106 -90 184 0.0 0.0 0.00 0.00 0.00 1036.6
20260509104557 -90 184 0.0 0.0 0.00 0.00 0.00 1036.4
20260509103022 -90 184 0.0 0.0 0.00 0.00 0.00 1036.4
20260509101531 -90 184 0.0 0.0 0.00 0.00 0.00 1036.5
20260509100044 -90 184 0.0 0.0 0.00 0.00 0.00 1036.3
20260509094540 -90 180 0.0 0.0 0.00 0.00 0.00 1036.3
20260509093032 0 194 0.0 0.0 0.00 0.00 0.00 1036.2
20260509091531 0 182 0.0 0.0 0.00 0.00 0.00 1036.1
20260509090023 0 202 0.0 0.0 0.00 0.00 0.00 1036.1
20260509084521 0 203 0.0 0.0 0.00 0.00 0.00 1036.1
20260509083010 -90 198 0.0 0.0 0.00 0.00 0.00 1036.1
20260509081507 -90 198 0.0 0.0 0.00 0.00 0.00 1036.0
20260509080003 0 198 0.0 0.0 0.00 0.00 0.00 1035.9
20260509074558 0 198 0.0 0.0 0.00 0.00 0.00 1035.6
20260509073050 -90 198 0.0 0.0 0.00 0.00 0.00 1035.4
20260509071550 0 200 0.0 0.0 0.00 0.00 0.00 1035.4
20260509070046 -90 202 0.0 0.0 0.00 0.00 0.00 1035.3
20260509064551 -90 205 0.0 0.0 0.00 0.00 0.00 1035.3
20260509063035 -90 205 0.0 0.0 0.00 0.00 0.00 1035.2
20260509061529 -90 198 0.0 0.0 0.00 0.00 0.00 1035.2
20260509060021 -90 203 0.0 0.0 0.00 0.00 0.00 1035.1
20260509054516 -90 246 0.0 0.0 0.00 0.00 0.00 1035.1
20260509053013 -90 187 0.0 0.0 0.00 0.00 0.00 1035.1
20260509051507 -90 186 0.0 0.0 0.00 0.00 0.00 1035.1
20260509044612 -90 185 0.0 0.0 0.00 0.00 0.00 1035.0
20260509043024 -90 184 0.0 0.0 0.00 0.00 0.00 1034.9
20260509041522 -90 184 0.0 0.0 0.00 0.00 0.00 1034.9
20260509040010 -90 183 0.0 0.0 0.00 0.00 0.00 1034.9
20260509034505 -90 250 0.0 0.0 0.00 0.00 0.00 1034.9
20260509033001 -90 259 0.0 0.0 0.00 0.00 0.00 1035.1
20260509031609 -90 180 0.0 0.0 0.00 0.00 0.00 1035.2
20260509030053 -90 180 0.0 0.0 0.00 0.00 0.00 1035.3
20260509024519 -90 179 0.0 0.0 0.00 0.00 0.00 1035.3
20260509023015 -90 240 0.0 0.0 0.00 0.00 0.00 1035.5
20260509021540 -90 239 0.0 0.0 0.00 0.00 0.00 1035.6
20260509020043 -90 145 0.0 0.0 0.00 0.00 0.00 1035.8
20260509014538 -90 139 0.0 0.0 0.00 0.00 0.00 1036.0
20260509013025 -90 130 0.0 0.0 0.00 0.00 0.00 1036.1
20260509011520 -90 129 0.0 0.0 0.00 0.00 0.00 1036.1
20260509010016 -90 219 0.0 0.0 0.00 0.00 0.00 1036.1
20260509004509 -90 223 0.0 0.0 0.00 0.00 0.00 1036.1
20260509003004 -90 186 0.0 0.0 0.00 0.00 0.00 1036.1
20260509001600 -90 183 0.0 0.0 0.00 0.00 0.00 1036.0
20260509000055 -90 180 0.0 0.0 0.00 0.00 0.00 1035.9
20260508234551 -90 186 0.0 0.0 0.00 0.00 0.00 1035.9
20260508233045 -90 182 0.0 0.0 0.00 0.00 0.00 1036.0
20260508231540 -90 184 0.0 0.0 0.00 0.00 0.00 1035.9
20260508230043 -90 190 0.0 0.0 0.00 0.00 0.00 1035.8
20260508224605 -90 190 0.0 0.0 0.00 0.00 0.00 1035.6